TimeCDT,TemperatureF,Dew PointF,Humidity,Sea Level PressureIn,VisibilityMPH,Wind Direction,Wind SpeedMPH,Gust SpeedMPH,PrecipitationIn,Events,Conditions,WindDirDegrees,DateUTC
12:15 AM,72.5,68.0,86,30.20,5.0,SE,5.8,-,N/A,,Haze,140,2013-07-15 05:15:00
12:35 AM,72.5,67.6,85,30.20,7.0,SE,9.2,-,N/A,,Overcast,130,2013-07-15 05:35:00
12:55 AM,71.6,68.2,89,30.20,4.0,SSE,6.9,-,N/A,Rain,Rain,150,2013-07-15 05:55:00
1:15 AM,70.9,68.0,91,30.20,3.0,South,3.5,-,0.06,Rain,Rain,170,2013-07-15 06:15:00
1:35 AM,71.4,68.5,91,30.21,2.5,SSE,3.5,-,0.07,Rain,Heavy Rain,150,2013-07-15 06:35:00
1:55 AM,71.6,68.9,91,30.20,2.5,SE,3.5,-,0.07,Rain,Rain,140,2013-07-15 06:55:00
2:15 AM,71.6,68.9,91,30.20,2.5,SE,4.6,-,N/A,,Overcast,140,2013-07-15 07:15:00
2:35 AM,71.2,68.5,91,30.20,2.5,SE,5.8,-,0.01,Rain,Rain,140,2013-07-15 07:35:00
2:55 AM,71.1,68.4,91,30.20,2.5,SSE,6.9,-,0.01,,Overcast,150,2013-07-15 07:55:00
3:15 AM,70.9,68.0,91,30.20,4.0,SSE,8.1,-,N/A,,Overcast,150,2013-07-15 08:15:00
3:35 AM,70.5,67.5,90,30.20,5.0,SSE,8.1,-,N/A,,Overcast,160,2013-07-15 08:35:00
3:55 AM,70.2,67.1,90,30.19,5.0,SSE,8.1,-,N/A,,Overcast,160,2013-07-15 08:55:00
4:15 AM,70.0,66.7,89,30.19,5.0,South,9.2,-,N/A,,Overcast,170,2013-07-15 09:15:00
4:35 AM,69.8,66.6,89,30.19,5.0,South,8.1,-,N/A,,Overcast,170,2013-07-15 09:35:00
4:55 AM,69.1,66.2,91,30.19,5.0,South,8.1,-,N/A,,Mostly Cloudy,170,2013-07-15 09:55:00
5:15 AM,68.9,66.0,90,30.19,5.0,SSE,10.4,-,N/A,,Mostly Cloudy,160,2013-07-15 10:15:00
5:35 AM,68.4,65.5,90,30.19,5.0,SSE,9.2,-,N/A,,Clear,160,2013-07-15 10:35:00
5:55 AM,68.2,65.3,90,30.19,5.0,SSE,9.2,-,N/A,,Clear,160,2013-07-15 10:55:00
6:15 AM,67.8,64.6,89,30.20,4.0,SSE,6.9,-,N/A,,Clear,160,2013-07-15 11:15:00
6:35 AM,67.3,64.4,90,30.21,4.0,SSE,4.6,-,N/A,,Clear,160,2013-07-15 11:35:00
6:55 AM,67.3,64.4,90,30.21,4.0,SSE,5.8,-,N/A,,Clear,160,2013-07-15 11:55:00
7:15 AM,67.3,64.4,90,30.21,4.0,SSE,3.5,-,N/A,,Clear,150,2013-07-15 12:15:00
7:35 AM,67.5,64.2,89,30.21,4.0,South,4.6,-,N/A,,Clear,170,2013-07-15 12:35:00
7:55 AM,68.5,64.4,87,30.22,5.0,South,5.8,-,N/A,,Haze,190,2013-07-15 12:55:00
8:15 AM,69.4,64.4,84,30.22,7.0,SSW,5.8,-,N/A,,Clear,200,2013-07-15 13:15:00
8:35 AM,70.7,63.7,78,30.22,10.0,South,8.1,-,N/A,,Clear,190,2013-07-15 13:35:00
8:55 AM,71.6,63.3,75,30.22,10.0,South,8.1,-,N/A,,Clear,170,2013-07-15 13:55:00
9:15 AM,72.5,62.8,71,30.22,10.0,South,11.5,-,N/A,,Clear,170,2013-07-15 14:15:00
9:35 AM,73.8,62.6,68,30.23,10.0,South,9.2,-,N/A,,Clear,170,2013-07-15 14:35:00
9:55 AM,74.8,61.9,64,30.23,10.0,South,11.5,-,N/A,,Clear,180,2013-07-15 14:55:00
10:15 AM,75.9,61.2,60,30.23,10.0,South,11.5,-,N/A,,Clear,190,2013-07-15 15:15:00
10:35 AM,76.8,60.6,57,30.23,10.0,SSE,13.8,-,N/A,,Clear,160,2013-07-15 15:35:00
10:55 AM,77.9,59.7,53,30.22,10.0,South,12.7,16.1,N/A,,Clear,180,2013-07-15 15:55:00
11:15 AM,79.7,59.4,50,30.22,10.0,South,12.7,18.4,N/A,,Scattered Clouds,180,2013-07-15 16:15:00
11:35 AM,78.6,58.1,49,30.22,10.0,SSE,10.4,18.4,N/A,,Scattered Clouds,160,2013-07-15 16:35:00
11:55 AM,80.6,55.6,42,30.21,10.0,South,12.7,19.6,N/A,,Scattered Clouds,180,2013-07-15 16:55:00
12:15 PM,81.3,56.8,43,30.21,10.0,SSE,16.1,20.7,N/A,,Scattered Clouds,160,2013-07-15 17:15:00
12:35 PM,82.0,55.4,40,30.21,10.0,SSE,15.0,21.9,N/A,,Scattered Clouds,160,2013-07-15 17:35:00
12:55 PM,81.5,54.3,39,30.21,10.0,SSE,16.1,-,N/A,,Scattered Clouds,160,2013-07-15 17:55:00
1:15 PM,82.9,54.5,37,30.20,10.0,South,15.0,23.0,N/A,,Scattered Clouds,190,2013-07-15 18:15:00
1:35 PM,83.8,54.1,36,30.20,10.0,SSE,12.7,20.7,N/A,,Scattered Clouds,160,2013-07-15 18:35:00
1:55 PM,84.0,52.9,34,30.20,10.0,South,13.8,19.6,N/A,,Scattered Clouds,170,2013-07-15 18:55:00
2:15 PM,84.4,53.2,34,30.19,10.0,SSE,15.0,24.2,N/A,,Scattered Clouds,160,2013-07-15 19:15:00
2:35 PM,84.4,54.1,35,30.19,10.0,South,15.0,23.0,N/A,,Scattered Clouds,180,2013-07-15 19:35:00
2:55 PM,85.5,53.6,33,30.18,10.0,SSW,16.1,21.9,N/A,,Scattered Clouds,200,2013-07-15 19:55:00
3:15 PM,84.6,52.5,33,30.17,10.0,SSE,15.0,23.0,N/A,,Scattered Clouds,150,2013-07-15 20:15:00
3:35 PM,86.2,50.5,29,30.17,10.0,South,16.1,21.9,N/A,,Scattered Clouds,170,2013-07-15 20:35:00
3:55 PM,85.6,50.0,29,30.16,10.0,South,15.0,24.2,N/A,,Scattered Clouds,170,2013-07-15 20:55:00
4:15 PM,86.9,50.0,28,30.16,10.0,South,19.6,24.2,N/A,,Scattered Clouds,170,2013-07-15 21:15:00
4:35 PM,87.4,48.9,26,30.15,10.0,SSE,13.8,19.6,N/A,,Scattered Clouds,160,2013-07-15 21:35:00
4:55 PM,87.1,48.9,27,30.15,10.0,South,13.8,-,N/A,,Scattered Clouds,170,2013-07-15 21:55:00
5:15 PM,86.9,50.9,29,30.14,10.0,South,17.3,23.0,N/A,,Scattered Clouds,170,2013-07-15 22:15:00
5:35 PM,86.2,50.5,29,30.14,10.0,SSE,16.1,20.7,N/A,,Scattered Clouds,160,2013-07-15 22:35:00
5:55 PM,86.4,50.5,29,30.14,10.0,South,11.5,21.9,N/A,,Scattered Clouds,170,2013-07-15 22:55:00
6:15 PM,85.6,50.7,30,30.13,10.0,SSE,13.8,20.7,N/A,,Scattered Clouds,150,2013-07-15 23:15:00
6:35 PM,85.6,50.9,30,30.13,10.0,SSE,17.3,-,N/A,,Clear,160,2013-07-15 23:35:00
6:55 PM,85.3,50.4,30,30.13,10.0,SSE,17.3,21.9,N/A,,Clear,150,2013-07-15 23:55:00
7:15 PM,84.7,50.2,30,30.13,10.0,SSE,15.0,23.0,N/A,,Clear,160,2013-07-16 00:15:00
7:35 PM,83.5,50.7,32,30.13,10.0,SSE,17.3,24.2,N/A,,Clear,150,2013-07-16 00:35:00
7:55 PM,83.1,50.2,32,30.13,10.0,SSE,15.0,23.0,N/A,,Clear,150,2013-07-16 00:55:00
8:15 PM,82.4,50.0,32,30.14,10.0,SSE,15.0,-,N/A,,Clear,150,2013-07-16 01:15:00
8:35 PM,80.6,50.4,35,30.14,10.0,SSE,13.8,-,N/A,,Clear,150,2013-07-16 01:35:00
8:55 PM,79.5,51.3,37,30.14,10.0,SSE,9.2,-,N/A,,Clear,150,2013-07-16 01:55:00
9:15 PM,77.9,51.8,40,30.14,10.0,SSE,11.5,-,N/A,,Clear,150,2013-07-16 02:15:00
9:35 PM,75.9,52.5,44,30.15,10.0,SSE,8.1,-,N/A,,Clear,150,2013-07-16 02:35:00
9:55 PM,74.5,52.7,46,30.16,10.0,SSE,8.1,-,N/A,,Clear,150,2013-07-16 02:55:00
10:15 PM,74.1,52.0,46,30.17,10.0,SSE,10.4,-,N/A,,Clear,160,2013-07-16 03:15:00
10:35 PM,73.4,52.0,47,30.17,10.0,SSE,10.4,-,N/A,,Clear,160,2013-07-16 03:35:00
10:55 PM,72.7,52.5,49,30.17,10.0,SSE,10.4,-,N/A,,Clear,160,2013-07-16 03:55:00
11:15 PM,72.1,53.4,52,30.18,10.0,SSE,11.5,-,N/A,,Clear,160,2013-07-16 04:15:00
11:35 PM,72.5,54.9,54,30.19,10.0,SSE,11.5,-,N/A,,Clear,150,2013-07-16 04:35:00
11:55 PM,72.5,56.1,56,30.19,10.0,SSE,13.8,-,N/A,,Clear,150,2013-07-16 04:55:00